"SCET";"TARGET";"ELECTRON_DENSITY";"ERROR_FLAG";"ELECTRON_DENSITY_ERROR";"FREQ_FCE";"MEASURED_VALUE";"MEASURED_ITEM";"FREQ_PLASMA";"FREQ_UPPER_HYBRID";"FREQ_R_EQUALS_ZERO";"FREQ_L_EQUALS_ZERO";"ORBIT_NUMBER";"SATURN_RADIUS";"SATURN_IAU_LONGITUDE";"SATURN_SLS4_S_LONGITUDE";"SATURN_SLS4_N_LONGITUDE";"SATURN_SLS5_S_LONGITUDE";"SATURN_SLS5_N_LONGITUDE";"SATURN_LOCAL_TIME";"SATURN_KRONOGRAPHIC_LATITUDE";"SATURN_MAGNETIC_LATITUDE";"SATURN_L";"SATURN_L_OFFSET";"SATURN_SOLAR_EQUATORIAL_X";"SATURN_SOLAR_EQUATORIAL_Y";"SATURN_SOLAR_EQUATORIAL_Z";"SATURN_ALTITUDE";"ENCELADUS_ENCOUNTER_NUMBER";"ENCELADUS_RADIUS";"ENCELADUS_COROTATIONAL_X";"ENCELADUS_COROTATIONAL_Y";"ENCELADUS_COROTATIONAL_Z";"ENCELADUS_TRUE_ANOMALY";"ENCELADUS_PERIAPSIS_TIME";"JUPITER_RADIUS";"JUPITER_SYSTEMIII_LONGITUDE";"JUPITER_MAGNETIC_LATITUDE";"JUPITER_MAGNETIC_LOCAL_TIME";"JUPITER_L";"IO_PHASE";"EARTH_RADIUS";"EARTH_MAGNETIC_LATITUDE";"EARTH_LOCAL_TIME";"EARTH_L"
"[UTC]";"[0=Saturn, 1=Enceladus, 2=Jupiter, 3=Earth]";"[cm-3]";"[0=automated, 1=manual]";"[normalized density error]";"[Hz]";"[Hz]";"[0=upper hybrid frequency, 1=plasma frequency cutoff]";"[Hz]";"[Hz]";"[Hz]";"[Hz}";"[0, A, B, C, 3, 4, ... , 292, 293]";"[Rs where 1Rs=60268km]";"[degrees]";"[degrees]";"[degrees]";"[degrees]";"[degrees]";"[hours]";"[degrees]";"[degrees where offset=2293km north]";"[Rs where 1Rs=60268km]";"[Rs where 1Rs=60268km and offset=2293km north]";"[Rs where 1Rs=60268km]";"[Rs where 1Rs=60268km]";"[Rs where 1Rs=60268km]";"[km where ellipsoid a,b=60268km and c=54364km]";"[E0, E1, E2, ... , E21, E22]";"[Renc where 1Renc=252.1km]";"[Renc where 1Renc=252.1km]";"[Renc where 1Renc=252.1km]";"[Renc where 1Renc=252.1km]";"[degrees]";"[UTC]";"[Rj where 1Rj=71492km]";"[degrees]";"[degrees using JRM09 model]";"[hours using JRM09 model]";"[Rj where 1Rj=71492km]";"[degrees]";"[Re where 1Re=6378.1366km]";"[degrees]";"[hours]";"[Re where 1Re=6378.1366km]"
2005-06-26T05:04:24.202Z;0;1.4200e+00;0;     0.333;  1463.252;  10798.627; 0;  10699.029;  10798.627;  11455.642;   9992.390; 10;   7.703;  37.255;  35.075;;  43.196; 221.521;  12.965; -19.577; -19.843;   8.678;   7.709;   7.028;   1.815;  -2.581;;;;;;;;;;;;;;;;;;
2005-06-26T05:04:40.202Z;0;1.4680e+00;0;     0.278;  1463.252;  10978.470; 0;  10880.519;  10978.470;  11636.715;  10173.463; 10;   7.701;  37.388;  35.206;;  43.328; 221.653;  12.966; -19.574; -19.840;   8.675;   7.706;   7.025;   1.816;  -2.580;;;;;;;;;;;;;;;;;;
2005-06-26T05:04:56.202Z;0;1.4710e+00;0;     0.357;  1463.252;  10987.594; 0;  10889.725;  10987.594;  11645.900;  10182.648; 10;   7.699;  37.521;  35.337;;  43.460; 221.785;  12.968; -19.571; -19.837;   8.672;   7.704;   7.023;   1.818;  -2.579;;;;;;;;;;;;;;;;;;
2005-06-26T05:05:12.202Z;0;1.4210e+00;0;     0.312;  1468.208;  10806.136; 0;  10705.930;  10806.136;  11465.173;   9996.965; 10;   7.697;  37.653;  35.468;;  43.592; 221.917;  12.969; -19.568; -19.835;   8.670;   7.702;   7.021;   1.820;  -2.578;;;;;;;;;;;;;;;;;;
2005-06-26T05:05:28.202Z;0;1.3960e+00;0;     0.323;  1468.208;  10711.992; 0;  10610.897;  10711.992;  11370.365;   9902.157; 10;   7.695;  37.786;  35.599;;  43.724; 222.049;  12.970; -19.565; -19.832;   8.667;   7.700;   7.018;   1.821;  -2.577;;;;;;;;;;;;;;;;;;
2005-06-26T05:05:44.202Z;0;1.4170e+00;0;     0.371;  1468.208;  10791.575; 0;  10691.232;  10791.575;  11450.511;   9982.303; 10;   7.693;  37.919;  35.730;;  43.856; 222.181;  12.971; -19.563; -19.829;   8.664;   7.698;   7.016;   1.823;  -2.576;;;;;;;;;;;;;;;;;;
2005-06-26T05:06:00.202Z;0;1.1940e+00;0;     0.271;  1473.052;   9920.812; 0;   9810.842;   9920.812;  10574.976;   9101.924; 10;   7.691;  38.052;  35.861;;  43.988; 222.312;  12.972; -19.560; -19.826;   8.661;   7.696;   7.013;   1.825;  -2.575;;;;;;;;;;;;;;;;;;
2005-06-26T05:06:16.202Z;0;1.2890e+00;0;     0.406;  1473.052;  10301.786; 0;  10195.927;  10301.786;  10959.021;   9485.968; 10;   7.688;  38.185;  35.992;;  44.121; 222.444;  12.973; -19.557; -19.824;   8.659;   7.694;   7.011;   1.826;  -2.574;;;;;;;;;;;;;;;;;;
2005-06-26T05:06:48.201Z;0;1.4010e+00;0;     0.392;  1473.052;  10728.804; 0;  10627.198;  10728.804;  11389.217;   9916.165; 10;   7.684;  38.450;  36.254;;  44.385; 222.707;  12.976; -19.551; -19.818;   8.653;   7.689;   7.006;   1.830;  -2.571;;;;;;;;;;;;;;;;;;
2005-06-26T05:07:04.201Z;0;1.3970e+00;0;     0.352;  1477.056;  10716.872; 0;  10614.597;  10716.872;  11378.785;   9901.729; 10;   7.682;  38.583;  36.385;;  44.518; 222.839;  12.977; -19.548; -19.815;   8.651;   7.687;   7.004;   1.831;  -2.570;;;;;;;;;;;;;;;;;;
2005-06-26T05:07:20.201Z;0;1.4770e+00;0;     0.345;  1477.056;  11012.102; 0;  10912.593;  11012.102;  11676.083;  10199.027; 10;   7.680;  38.716;  36.515;;  44.650; 222.970;  12.978; -19.545; -19.812;   8.648;   7.685;   7.001;   1.833;  -2.569;;;;;;;;;;;;;;;;;;
2005-06-26T05:07:36.201Z;0;1.4560e+00;0;     0.371;  1477.056;  10937.258; 0;  10837.062;  10937.258;  11600.726;  10123.670; 10;   7.678;  38.848;  36.646;;  44.783; 223.101;  12.979; -19.543; -19.810;   8.645;   7.683;   6.999;   1.835;  -2.568;;;;;;;;;;;;;;;;;;
2005-06-26T05:07:52.201Z;0;1.4390e+00;0;     0.285;  1477.056;  10871.783; 0;  10770.979;  10871.783;  11534.796;  10057.740; 10;   7.676;  38.981;  36.777;;  44.916; 223.232;  12.980; -19.540; -19.807;   8.642;   7.681;   6.997;   1.836;  -2.567;;;;;;;;;;;;;;;;;;
2005-06-26T05:08:08.201Z;0;1.4440e+00;0;     0.326;  1481.956;  10890.505; 0;  10789.203;  10890.505;  11555.596;  10073.640; 10;   7.674;  39.114;  36.908;;  45.048; 223.363;  12.981; -19.537; -19.804;   8.640;   7.679;   6.994;   1.838;  -2.566;;;;;;;;;;;;;;;;;;
2005-06-26T05:08:24.201Z;0;1.4000e+00;0;     0.361;  1481.956;  10726.939; 0;  10624.078;  10726.939;  11390.864;   9908.908; 10;   7.671;  39.246;  37.039;;  45.181; 223.494;  12.983; -19.534; -19.801;   8.637;   7.677;   6.992;   1.840;  -2.565;;;;;;;;;;;;;;;;;;
2005-06-26T05:08:40.201Z;0;1.4310e+00;0;     0.368;  1481.956;  10842.748; 0;  10740.996;  10842.748;  11507.502;  10025.546; 10;   7.669;  39.379;  37.170;;  45.314; 223.625;  12.984; -19.531; -19.798;   8.634;   7.674;   6.990;   1.841;  -2.564;;;;;;;;;;;;;;;;;;
2005-06-26T05:08:56.201Z;0;1.3040e+00;0;     0.355;  1481.956;  10360.538; 0;  10254.002;  10360.538;  11021.718;   9539.762; 10;   7.667;  39.512;  37.300;;  45.447; 223.756;  12.985; -19.528; -19.796;   8.632;   7.672;   6.987;   1.843;  -2.563;;;;;;;;;;;;;;;;;;
2005-06-26T05:09:12.200Z;0;1.4660e+00;0;     0.403;  1486.268;  10973.279; 0;  10872.160;  10973.279;  11640.662;  10154.394; 10;   7.665;  39.644;  37.431;;  45.580; 223.887;  12.986; -19.525; -19.793;   8.629;   7.670;   6.985;   1.845;  -2.562;;;;;;;;;;;;;;;;;;
2005-06-26T05:09:28.200Z;0;1.4940e+00;0;     0.385;  1486.268;  11076.950; 0;  10976.786;  11076.950;  11745.047;  10258.778; 10;   7.663;  39.777;  37.562;;  45.713; 224.018;  12.987; -19.522; -19.790;   8.626;   7.668;   6.982;   1.846;  -2.561;;;;;;;;;;;;;;;;;;
2005-06-26T05:10:00.200Z;0;1.4130e+00;0;     0.399;  1491.644;  10779.774; 0;  10676.073;  10779.774;  11447.914;   9956.271; 10;   7.659;  40.042;  37.824;;  45.979; 224.279;  12.990; -19.517; -19.784;   8.621;   7.664;   6.978;   1.849;  -2.559;;;;;;;;;;;;;;;;;;
2005-06-26T05:10:16.200Z;0;1.4090e+00;0;     0.395;  1491.644;  10762.819; 0;  10658.953;  10762.819;  11430.836;   9939.192; 10;   7.656;  40.175;  37.954;;  46.111; 224.412;  12.991; -19.514; -19.782;   8.618;   7.662;   6.975;   1.851;  -2.557;;;;;;;;;;;;;;;;;;
2005-06-26T05:10:32.200Z;0;1.3120e+00;0;     0.393;  1491.644;  10395.236; 0;  10287.659;  10395.236;  11060.480;   9568.837; 10;   7.654;  40.308;  38.085;;  46.243; 224.545;  12.992; -19.511; -19.779;   8.615;   7.659;   6.973;   1.853;  -2.556;;;;;;;;;;;;;;;;;;
2005-06-26T05:10:48.200Z;0;1.3970e+00;0;     0.387;  1491.644;  10717.123; 0;  10612.810;  10717.123;  11384.806;   9893.162; 10;   7.652;  40.440;  38.216;;  46.374; 224.679;  12.993; -19.508; -19.776;   8.613;   7.657;   6.970;   1.854;  -2.555;;;;;;;;;;;;;;;;;;
2005-06-26T05:11:04.200Z;0;1.2930e+00;0;     0.366;  1496.516;  10321.758; 0;  10212.694;  10321.758;  10988.327;   9491.812; 10;   7.650;  40.573;  38.347;;  46.506; 224.812;  12.994; -19.505; -19.773;   8.610;   7.655;   6.968;   1.856;  -2.554;;;;;;;;;;;;;;;;;;
2005-06-26T05:11:20.200Z;0;1.3440e+00;0;     0.407;  1496.516;  10516.121; 0;  10409.094;  10516.121;  11184.212;   9687.696; 10;   7.648;  40.706;  38.477;;  46.638; 224.946;  12.995; -19.502; -19.770;   8.607;   7.653;   6.966;   1.858;  -2.553;;;;;;;;;;;;;;;;;;
2005-06-26T05:11:36.200Z;0;1.2510e+00;0;     0.326;  1496.516;  10156.769; 0;  10045.914;  10156.769;  10822.000;   9325.484; 10;   7.646;  40.838;  38.608;;  46.770; 225.079;  12.997; -19.499; -19.767;   8.604;   7.651;   6.963;   1.859;  -2.552;;;;;;;;;;;;;;;;;;
2005-06-26T05:11:52.199Z;0;1.3040e+00;0;     0.416;  1496.516;  10364.932; 0;  10256.327;  10364.932;  11031.844;   9535.328; 10;   7.644;  40.971;  38.739;;  46.902; 225.213;  12.998; -19.496; -19.764;   8.602;   7.649;   6.961;   1.861;  -2.551;;;;;;;;;;;;;;;;;;
2005-06-26T05:12:08.199Z;0;1.2860e+00;0;     0.376;  1501.136;  10291.989; 0;  10181.927;  10291.989;  10960.122;   9458.985; 10;   7.641;  41.103;  38.869;;  47.033; 225.346;  12.999; -19.493; -19.762;   8.599;   7.647;   6.959;   1.863;  -2.550;;;;;;;;;;;;;;;;;;
2005-06-26T05:12:24.199Z;0;1.2880e+00;0;     0.369;  1501.136;  10302.822; 0;  10192.877;  10302.822;  10971.042;   9469.906; 10;   7.639;  41.236;  39.000;;  47.165; 225.480;  13.000; -19.490; -19.759;   8.596;   7.644;   6.956;   1.864;  -2.549;;;;;;;;;;;;;;;;;;
2005-06-26T05:12:40.199Z;0;1.2470e+00;0;     0.317;  1501.136;  10139.852; 0;  10028.119;  10139.852;  10806.737;   9305.601; 10;   7.637;  41.368;  39.131;;  47.297; 225.614;  13.001; -19.487; -19.756;   8.594;   7.642;   6.954;   1.866;  -2.548;;;;;;;;;;;;;;;;;;
2005-06-26T05:12:56.199Z;0;1.1860e+00;0;     0.188;  1501.136;   9893.563; 0;   9779.018;   9893.563;  10558.348;   9057.212; 10;   7.635;  41.501;  39.262;;  47.429; 225.748;  13.002; -19.484; -19.753;   8.591;   7.640;   6.951;   1.868;  -2.547;;;;;;;;;;;;;;;;;;
2005-06-26T05:13:12.199Z;0;1.1750e+00;0;     0.168;  1506.008;   9851.170; 0;   9735.373;   9851.170;  10517.455;   9011.447; 10;   7.633;  41.634;  39.392;;  47.560; 225.881;  13.004; -19.481; -19.750;   8.588;   7.638;   6.949;   1.869;  -2.546;;;;;;;;;;;;;;;;;;
2005-06-26T05:13:28.199Z;0;1.1720e+00;0;     0.174;  1506.008;   9839.544; 0;   9723.608;   9839.544;  10505.726;   8999.718; 10;   7.631;  41.766;  39.523;;  47.692; 226.015;  13.005; -19.479; -19.747;   8.585;   7.636;   6.947;   1.871;  -2.544;;;;;;;;;;;;;;;;;;
2005-06-26T05:13:44.199Z;0;1.2090e+00;0;     0.252;  1506.008;   9987.246; 0;   9873.045;   9987.246;  10654.723;   9148.715; 10;   7.629;  41.899;  39.654;;  47.824; 226.149;  13.006; -19.476; -19.744;   8.583;   7.634;   6.944;   1.873;  -2.543;;;;;;;;;;;;;;;;;;
2005-06-26T05:14:00.199Z;0;1.2330e+00;0;     0.294;  1510.460;  10083.837; 0;   9970.069;  10083.837;  10753.862;   9243.402; 10;   7.626;  42.031;  39.784;;  47.955; 226.283;  13.007; -19.473; -19.742;   8.580;   7.632;   6.942;   1.874;  -2.542;;;;;;;;;;;;;;;;;;
2005-06-26T05:14:16.199Z;0;1.1920e+00;0;     0.181;  1510.460;   9917.984; 0;   9802.292;   9917.984;  10586.572;   9076.112; 10;   7.624;  42.164;  39.915;;  48.087; 226.418;  13.008; -19.470; -19.739;   8.577;   7.630;   6.939;   1.876;  -2.541;;;;;;;;;;;;;;;;;;
2005-06-26T05:14:32.198Z;0;1.1800e+00;0;     0.154;  1510.460;   9869.505; 0;   9753.237;   9869.505;  10537.664;   9027.204; 10;   7.622;  42.296;  40.045;;  48.219; 226.552;  13.009; -19.467; -19.736;   8.574;   7.627;   6.937;   1.877;  -2.540;;;;;;;;;;;;;;;;;;
2005-06-26T05:14:48.198Z;0;1.1790e+00;0;     0.146;  1510.460;   9868.924; 0;   9752.649;   9868.924;  10537.077;   9026.617; 10;   7.620;  42.429;  40.176;;  48.350; 226.686;  13.011; -19.464; -19.733;   8.572;   7.625;   6.935;   1.879;  -2.539;;;;;;;;;;;;;;;;;;
2005-06-26T05:15:04.198Z;0;1.1760e+00;0;     0.157;  1514.604;   9856.560; 0;   9739.494;   9856.560;  10526.193;   9011.590; 10;   7.618;  42.561;  40.307;;  48.482; 226.820;  13.012; -19.461; -19.730;   8.569;   7.623;   6.932;   1.881;  -2.538;;;;;;;;;;;;;;;;;;
2005-06-26T05:15:20.198Z;0;1.1790e+00;0;     0.149;  1514.604;   9866.531; 0;   9749.585;   9866.531;  10536.255;   9021.651; 10;   7.616;  42.694;  40.437;;  48.614; 226.955;  13.013; -19.458; -19.727;   8.566;   7.621;   6.930;   1.882;  -2.537;;;;;;;;;;;;;;;;;;
2005-06-26T05:15:36.198Z;0;1.1790e+00;0;     0.153;  1514.604;   9865.836; 0;   9748.882;   9865.836;  10535.554;   9020.949; 10;   7.614;  42.826;  40.568;;  48.745; 227.089;  13.014; -19.455; -19.724;   8.564;   7.619;   6.927;   1.884;  -2.536;;;;;;;;;;;;;;;;;;
2005-06-26T05:15:52.198Z;0;1.1790e+00;0;     0.159;  1514.604;   9867.259; 0;   9750.321;   9867.259;  10536.989;   9022.385; 10;   7.611;  42.958;  40.698;;  48.877; 227.224;  13.015; -19.452; -19.721;   8.561;   7.617;   6.925;   1.886;  -2.535;;;;;;;;;;;;;;;;;;
2005-06-26T05:16:08.198Z;0;1.1700e+00;0;     0.169;  1518.328;   9830.937; 0;   9712.980;   9830.937;  10501.768;   8983.439; 10;   7.609;  43.091;  40.829;;  49.009; 227.358;  13.017; -19.449; -19.719;   8.558;   7.615;   6.923;   1.887;  -2.534;;;;;;;;;;;;;;;;;;
2005-06-26T05:16:24.198Z;0;1.1770e+00;0;     0.164;  1518.328;   9859.759; 0;   9742.152;   9859.759;  10530.851;   9012.522; 10;   7.607;  43.223;  40.959;;  49.140; 227.493;  13.018; -19.446; -19.716;   8.555;   7.612;   6.920;   1.889;  -2.533;;;;;;;;;;;;;;;;;;
2005-06-26T05:16:40.198Z;0;1.2140e+00;0;     0.287;  1518.328;  10010.181; 0;   9894.362;  10010.181;  10682.607;   9164.279; 10;   7.605;  43.356;  41.090;;  49.272; 227.627;  13.019; -19.443; -19.713;   8.553;   7.610;   6.918;   1.891;  -2.531;;;;;;;;;;;;;;;;;;
2005-06-26T05:16:56.197Z;0;1.2380e+00;0;     0.344;  1518.328;  10105.972; 0;   9991.264;  10105.972;  10779.228;   9260.899; 10;   7.603;  43.488;  41.221;;  49.403; 227.762;  13.020; -19.440; -19.710;   8.550;   7.608;   6.915;   1.892;  -2.530;;;;;;;;;;;;;;;;;;
2005-06-26T05:17:12.197Z;0;1.1920e+00;0;     0.230;  1522.192;   9922.887; 0;   9805.438;   9922.887;  10596.027;   9073.836; 10;   7.601;  43.621;  41.351;;  49.535; 227.897;  13.021; -19.437; -19.707;   8.547;   7.606;   6.913;   1.894;  -2.529;;;;;;;;;;;;;;;;;;
2005-06-26T05:17:28.197Z;0;1.1830e+00;0;     0.175;  1522.192;   9883.713; 0;   9765.793;   9883.713;  10556.502;   9034.310; 10;   7.599;  43.753;  41.482;;  49.667; 228.032;  13.022; -19.434; -19.704;   8.545;   7.604;   6.911;   1.896;  -2.528;;;;;;;;;;;;;;;;;;
2005-06-26T05:17:44.197Z;0;1.1750e+00;0;     0.165;  1522.192;   9851.248; 0;   9732.935;   9851.248;  10523.743;   9001.552; 10;   7.596;  43.885;  41.612;;  49.798; 228.167;  13.024; -19.431; -19.701;   8.542;   7.602;   6.908;   1.897;  -2.527;;;;;;;;;;;;;;;;;;
2005-06-26T05:18:00.197Z;0;1.1770e+00;0;     0.154;  1526.504;   9862.499; 0;   9743.647;   9862.499;  10536.748;   9010.244; 10;   7.594;  44.018;  41.743;;  49.930; 228.302;  13.025; -19.428; -19.698;   8.539;   7.600;   6.906;   1.899;  -2.526;;;;;;;;;;;;;;;;;;
2005-06-26T05:18:16.197Z;0;1.1720e+00;0;     0.148;  1526.504;   9842.700; 0;   9723.607;   9842.700;  10516.769;   8990.265; 10;   7.592;  44.150;  41.873;;  50.061; 228.437;  13.026; -19.425; -19.695;   8.536;   7.597;   6.903;   1.900;  -2.525;;;;;;;;;;;;;;;;;;
2005-06-26T05:18:32.197Z;0;1.1760e+00;0;     0.157;  1526.504;   9858.058; 0;   9739.152;   9858.058;  10532.267;   9005.763; 10;   7.590;  44.282;  42.004;;  50.193; 228.572;  13.027; -19.422; -19.692;   8.534;   7.595;   6.901;   1.902;  -2.524;;;;;;;;;;;;;;;;;;
2005-06-26T05:18:48.197Z;0;1.1920e+00;0;     0.144;  1526.504;   9922.054; 0;   9803.925;   9922.054;  10596.842;   9070.338; 10;   7.588;  44.415;  42.134;;  50.324; 228.707;  13.028; -19.419; -19.689;   8.531;   7.593;   6.898;   1.904;  -2.523;;;;;;;;;;;;;;;;;;
2005-06-26T05:19:04.197Z;0;1.1930e+00;0;     0.135;  1530.340;   9927.627; 0;   9808.967;   9927.627;  10603.937;   9073.597; 10;   7.586;  44.547;  42.265;;  50.456; 228.842;  13.030; -19.416; -19.686;   8.528;   7.591;   6.896;   1.905;  -2.522;;;;;;;;;;;;;;;;;;
2005-06-26T05:19:20.197Z;0;1.1840e+00;0;     0.147;  1530.340;   9890.830; 0;   9771.724;   9890.830;  10566.806;   9036.466; 10;   7.584;  44.679;  42.395;;  50.587; 228.978;  13.031; -19.413; -19.683;   8.525;   7.589;   6.894;   1.907;  -2.521;;;;;;;;;;;;;;;;;;
2005-06-26T05:19:52.196Z;0;1.2000e+00;0;     0.125;  1530.340;   9955.581; 0;   9837.259;   9955.581;  10632.143;   9101.802; 10;   7.579;  44.944;  42.656;;  50.850; 229.248;  13.033; -19.407; -19.678;   8.520;   7.585;   6.889;   1.910;  -2.518;;;;;;;;;;;;;;;;;;
2005-06-26T05:20:08.196Z;0;1.1990e+00;0;     0.127;  1533.868;   9951.561; 0;   9832.640;   9951.561;  10629.438;   9095.570; 10;   7.577;  45.076;  42.786;;  50.981; 229.383;  13.034; -19.404; -19.675;   8.517;   7.582;   6.886;   1.912;  -2.517;;;;;;;;;;;;;;;;;;
2005-06-26T05:20:24.196Z;0;1.1910e+00;0;     0.125;  1533.868;   9920.811; 0;   9801.517;   9920.811;  10598.410;   9064.542; 10;   7.575;  45.209;  42.917;;  51.111; 229.517;  13.036; -19.401; -19.672;   8.515;   7.580;   6.884;   1.914;  -2.516;;;;;;;;;;;;;;;;;;
2005-06-26T05:20:40.196Z;0;1.2020e+00;0;     0.124;  1533.868;   9965.181; 0;   9846.425;   9965.181;  10643.182;   9109.313; 10;   7.573;  45.341;  43.047;;  51.241; 229.652;  13.037; -19.398; -19.669;   8.512;   7.578;   6.882;   1.915;  -2.515;;;;;;;;;;;;;;;;;;
2005-06-26T05:20:56.196Z;0;1.1950e+00;0;     0.127;  1533.868;   9933.804; 0;   9814.668;   9933.804;  10611.521;   9077.653; 10;   7.571;  45.473;  43.177;;  51.371; 229.786;  13.038; -19.395; -19.666;   8.509;   7.576;   6.879;   1.917;  -2.514;;;;;;;;;;;;;;;;;;
2005-06-26T05:21:12.196Z;0;1.1960e+00;0;     0.131;  1537.452;   9940.341; 0;   9820.724;   9940.341;  10619.490;   9082.038; 10;   7.569;  45.605;  43.308;;  51.501; 229.920;  13.039; -19.392; -19.663;   8.506;   7.574;   6.877;   1.919;  -2.513;;;;;;;;;;;;;;;;;;
2005-06-26T05:21:28.196Z;0;1.1960e+00;0;     0.136;  1537.452;   9942.245; 0;   9822.651;   9942.245;  10621.412;   9083.960; 10;   7.567;  45.738;  43.438;;  51.631; 230.054;  13.040; -19.389; -19.660;   8.504;   7.572;   6.874;   1.920;  -2.512;;;;;;;;;;;;;;;;;;
2005-06-26T05:21:44.196Z;0;1.1870e+00;0;     0.137;  1537.452;   9904.656; 0;   9784.604;   9904.656;  10583.480;   9046.028; 10;   7.564;  45.870;  43.569;;  51.760; 230.188;  13.042; -19.386; -19.657;   8.501;   7.570;   6.872;   1.922;  -2.511;;;;;;;;;;;;;;;;;;
2005-06-26T05:22:00.196Z;0;1.2010e+00;0;     0.139;  1541.036;   9962.325; 0;   9842.415;   9962.325;  10643.047;   9102.011; 10;   7.562;  46.002;  43.699;;  51.890; 230.322;  13.043; -19.382; -19.654;   8.498;   7.567;   6.870;   1.923;  -2.510;;;;;;;;;;;;;;;;;;
2005-06-26T05:22:16.195Z;0;1.1880e+00;0;     0.145;  1541.036;   9910.142; 0;   9789.592;   9910.142;  10590.387;   9049.351; 10;   7.560;  46.134;  43.829;;  52.019; 230.456;  13.044; -19.379; -19.651;   8.495;   7.565;   6.867;   1.925;  -2.509;;;;;;;;;;;;;;;;;;
2005-06-26T05:22:32.195Z;0;1.1840e+00;0;     0.153;  1541.036;   9891.920; 0;   9771.146;   9891.920;  10571.997;   9030.961; 10;   7.558;  46.267;  43.960;;  52.149; 230.590;  13.045; -19.376; -19.648;   8.493;   7.563;   6.865;   1.927;  -2.507;;;;;;;;;;;;;;;;;;
2005-06-26T05:22:48.195Z;0;1.1860e+00;0;     0.153;  1541.036;   9902.244; 0;   9781.598;   9902.244;  10582.416;   9041.380; 10;   7.556;  46.399;  44.090;;  52.278; 230.724;  13.046; -19.373; -19.645;   8.490;   7.561;   6.862;   1.928;  -2.506;;;;;;;;;;;;;;;;;;
2005-06-26T05:23:04.195Z;0;1.1840e+00;0;     0.146;  1544.760;   9894.460; 0;   9773.129;   9894.460;  10575.982;   9031.223; 10;   7.554;  46.531;  44.220;;  52.408; 230.858;  13.047; -19.370; -19.642;   8.487;   7.559;   6.860;   1.930;  -2.505;;;;;;;;;;;;;;;;;;
2005-06-26T05:23:20.195Z;0;1.1780e+00;0;     0.156;  1544.760;   9868.287; 0;   9746.631;   9868.287;  10549.566;   9004.807; 10;   7.552;  46.663;  44.351;;  52.537; 230.992;  13.049; -19.367; -19.639;   8.485;   7.557;   6.857;   1.932;  -2.504;;;;;;;;;;;;;;;;;;
2005-06-26T05:23:36.195Z;0;1.1870e+00;0;     0.165;  1544.760;   9903.395; 0;   9782.175;   9903.395;  10585.000;   9040.240; 10;   7.549;  46.795;  44.481;;  52.666; 231.126;  13.050; -19.364; -19.636;   8.482;   7.555;   6.855;   1.933;  -2.503;;;;;;;;;;;;;;;;;;
2005-06-26T05:23:52.195Z;0;1.1970e+00;0;     0.162;  1544.760;   9947.341; 0;   9826.663;   9947.341;  10629.351;   9084.591; 10;   7.547;  46.927;  44.611;;  52.795; 231.260;  13.051; -19.361; -19.633;   8.479;   7.552;   6.853;   1.935;  -2.502;;;;;;;;;;;;;;;;;;
2005-06-26T05:24:08.195Z;0;1.2040e+00;0;     0.150;  1548.568;   9972.565; 0;   9851.599;   9972.565;  10656.264;   9107.695; 10;   7.545;  47.060;  44.741;;  52.924; 231.394;  13.052; -19.358; -19.630;   8.476;   7.550;   6.850;   1.937;  -2.501;;;;;;;;;;;;;;;;;;
2005-06-26T05:24:24.195Z;0;1.1870e+00;0;     0.158;  1548.568;   9904.669; 0;   9782.862;   9904.669;  10587.740;   9039.172; 10;   7.543;  47.192;  44.872;;  53.053; 231.528;  13.053; -19.355; -19.627;   8.474;   7.548;   6.848;   1.938;  -2.500;;;;;;;;;;;;;;;;;;
2005-06-26T05:24:40.195Z;0;1.1920e+00;0;     0.168;  1548.568;   9925.925; 0;   9804.383;   9925.925;  10609.193;   9060.625; 10;   7.541;  47.324;  45.002;;  53.181; 231.662;  13.055; -19.352; -19.624;   8.471;   7.546;   6.845;   1.940;  -2.499;;;;;;;;;;;;;;;;;;
2005-06-26T05:24:56.194Z;0;1.2040e+00;0;     0.172;  1548.568;   9973.224; 0;   9852.265;   9973.224;  10656.928;   9108.359; 10;   7.539;  47.456;  45.132;;  53.310; 231.796;  13.056; -19.349; -19.621;   8.468;   7.544;   6.843;   1.941;  -2.498;;;;;;;;;;;;;;;;;;
2005-06-26T05:25:12.194Z;0;1.2030e+00;0;     0.206;  1552.404;   9970.947; 0;   9849.356;   9970.947;  10656.097;   9103.692; 10;   7.537;  47.588;  45.263;;  53.439; 231.930;  13.057; -19.346; -19.618;   8.465;   7.542;   6.840;   1.943;  -2.497;;;;;;;;;;;;;;;;;;
2005-06-26T05:25:44.194Z;0;1.3700e+00;0;     0.279;  1552.404;  10624.620; 0;  10510.595;  10624.620;  11315.419;   9763.015; 10;   7.532;  47.852;  45.523;;  53.696; 232.198;  13.059; -19.339; -19.612;   8.460;   7.537;   6.836;   1.946;  -2.494;;;;;;;;;;;;;;;;;;
2005-06-26T05:26:00.194Z;0;1.2340e+00;0;     0.269;  1556.296;  10095.654; 0;   9974.978;  10095.654;  10783.432;   9227.135; 10;   7.530;  47.984;  45.653;;  53.824; 232.332;  13.061; -19.336; -19.609;   8.457;   7.535;   6.833;   1.948;  -2.493;;;;;;;;;;;;;;;;;;
2005-06-26T05:26:16.194Z;0;1.3430e+00;0;     0.385;  1556.296;  10522.664; 0;  10406.940;  10522.664;  11214.140;   9657.844; 10;   7.528;  48.117;  45.783;;  53.952; 232.466;  13.062; -19.333; -19.606;   8.455;   7.533;   6.831;   1.950;  -2.492;;;;;;;;;;;;;;;;;;
2005-06-26T05:26:32.194Z;0;1.3240e+00;0;     0.311;  1556.296;  10450.659; 0;  10334.129;  10450.659;  11141.532;   9585.236; 10;   7.526;  48.249;  45.914;;  54.081; 232.600;  13.063; -19.330; -19.603;   8.452;   7.531;   6.828;   1.951;  -2.491;;;;;;;;;;;;;;;;;;
2005-06-26T05:26:48.194Z;0;1.3080e+00;0;     0.313;  1556.296;  10385.879; 0;  10268.613;  10385.879;  11076.203;   9519.907; 10;   7.524;  48.381;  46.044;;  54.209; 232.734;  13.064; -19.327; -19.600;   8.449;   7.529;   6.826;   1.953;  -2.490;;;;;;;;;;;;;;;;;;
2005-06-26T05:27:04.194Z;0;1.3050e+00;0;     0.284;  1560.692;  10377.820; 0;  10259.795;  10377.820;  11069.774;   9509.082; 10;   7.522;  48.513;  46.174;;  54.337; 232.868;  13.066; -19.324; -19.597;   8.446;   7.527;   6.823;   1.955;  -2.489;;;;;;;;;;;;;;;;;;
2005-06-26T05:27:20.194Z;0;1.3200e+00;0;     0.348;  1560.692;  10436.053; 0;  10318.693;  10436.053;  11128.504;   9567.812; 10;   7.519;  48.645;  46.304;;  54.465; 233.002;  13.067; -19.321; -19.594;   8.444;   7.525;   6.821;   1.956;  -2.488;;;;;;;;;;;;;;;;;;